Flag for Belgium Weather past 2 weeks in Leuven, Belgium

Now
59 °F

Broken clouds.


Feels Like: 58 °F
Forecast: 46 / 68 °F
Wind: 8 mph from Northeast

Location: Brussels National Airport

Current Time: May 23, 2015 at 7:04:45 PM

Latest Report: May 23, 2015 at 6:20 PM


Visibility: N/A

Pressure: 30.18 "Hg

Humidity: 72%

Dew point: 50 °F

Location of LeuvenLocation

Historic Weather in Leuven — Graph

°F

Leuven temperature yesterday

Maximum temperature yesterday: 68 °F (at 3:20 PM)
Minimum temperature yesterday: 46 °F (at 5:20 AM)
Average temperature yesterday: 57 °F

Past Weeks' High & Low Weather Summary

 TemperatureHumidityPressure
High77 °F (May 11, 2:50 PM)100% (May 16, 3:20 PM)30.36 "Hg (May 16, 3:20 PM)
Low39 °F (May 14, 5:20 AM)11% (May 23, 6:50 AM)29.68 "Hg (May 18, 7:50 PM)
Average55 °F70%30.09 "Hg
* Reported May 8 5:20 PM — May 23 5:50 PM, Leuven, Weather by CustomWeather, © 2015

Note: Actual official high and low records may vary slightly from our data, if they occured in-between our weather recording intervals... More about our weather records

Advertising

Leuven weather history for previous 24 hours

 ConditionsComfort  
Time TempWeatherWind HumidityBarometerVisibility
5:50 PM
Sat, May 23
59 °FBroken clouds.9 mph77%30.18 "HgN/A
5:20 PM57 °FBroken clouds.9 mph82%30.18 "HgN/A
4:50 PM59 °FBroken clouds.10 mph77%30.18 "HgN/A
4:20 PM59 °FPartly sunny.10 mph82%30.18 "HgN/A
3:50 PM57 °FPartly sunny.9 mph88%30.18 "HgN/A
3:20 PM57 °FBroken clouds.12 mph88%30.18 "Hg5 mi
2:50 PM61 °FPartly sunny.9 mph77%30.18 "Hg4 mi
2:20 PM63 °FBroken clouds.9 mph73%30.18 "Hg4 mi
1:50 PM63 °FPartly sunny.9 mph73%30.18 "Hg3 mi
1:20 PM63 °FScattered clouds.10 mph73%30.18 "Hg4 mi
12:50 PM64 °FScattered clouds.7 mph68%30.18 "Hg4 mi
12:20 PM63 °FScattered clouds.7 mph73%30.18 "Hg6 mi
11:50 AM63 °FScattered clouds.5 mph73%30.18 "HgN/A
11:20 AM63 °FPassing clouds.5 mph68%30.18 "HgN/A
10:50 AM63 °FPassing clouds.2 mph68%30.18 "HgN/A
10:20 AM59 °FPassing clouds.3 mph72%30.21 "HgN/A
9:50 AM59 °FPassing clouds.3 mph72%30.21 "HgN/A
9:20 AM57 °FPassing clouds.5 mph72%30.21 "HgN/A
8:50 AM57 °FSunny.5 mph77%30.18 "Hg10 mi
8:20 AM57 °FPassing clouds.3 mph77%30.18 "HgN/A
7:50 AM55 °FSunny.2 mph88%30.18 "Hg10 mi
7:20 AM55 °FSunny.3 mph82%30.18 "Hg10 mi
6:50 AM54 °FSunny.3 mph11%30.18 "Hg10 mi
6:20 AM54 °FClear.2 mph88%30.18 "Hg10 mi
5:50 AM54 °FClear.No wind88%30.18 "Hg10 mi
5:20 AM54 °FClear.1 mph88%30.18 "Hg10 mi
4:50 AM54 °FClear.3 mph88%30.18 "Hg10 mi
4:20 AM54 °FClear.3 mph88%30.18 "Hg10 mi
3:50 AM54 °FClear.3 mph88%30.18 "Hg10 mi
3:20 AM54 °FClear.3 mph88%30.18 "Hg10 mi
2:50 AM54 °FClear.3 mph88%30.21 "Hg10 mi
2:20 AM54 °FClear.1 mph88%30.21 "Hg10 mi
1:50 AM54 °FClear.No wind82%30.21 "Hg10 mi
1:20 AM55 °FClear.No wind77%30.21 "Hg10 mi
12:50 AM55 °FClear.1 mph77%30.24 "Hg10 mi
12:20 AM54 °FClear.1 mph82%30.24 "Hg10 mi
11:50 PM
Fri, May 22
54 °FClear.1 mph82%30.24 "Hg10 mi
10:50 PM54 °FClear.1 mph82%30.24 "Hg10 mi
10:20 PM54 °FSunny.2 mph82%30.21 "Hg10 mi
9:50 PM55 °FSunny.3 mph72%30.24 "Hg10 mi
9:20 PM57 °FSunny.7 mph72%30.21 "Hg10 mi
8:50 PM59 °FSunny.10 mph63%30.21 "Hg10 mi
8:20 PM64 °FSunny.6 mph49%30.21 "Hg10 mi
7:50 PM66 °FSunny.6 mph46%30.21 "Hg10 mi
7:20 PM66 °FPassing clouds.6 mph46%30.21 "HgN/A
Weather by CustomWeather, © 2015

See weather overviewHow to use our weather pages